sat.trackr.live / text

‹ back to catalog

STARLINK-33660

NORAD 63278 · 2025-053P

PAYLOAD ACTIVE UNKNOWN

§ Identity

Operator
Country
US
Launch date
2025-03-15
Launch site
AFETR
Launch vehicle
Mass (kg)
RCS (m²)

Purposes: comms

External: N2YO · Heavens-Above · Gunter

§ Orbital elements

Epoch: 2026-09-19T06:06:01.539072Z

Period
94.27 min
Inclination
42.9987°
Eccentricity
0.0001435
Mean motion
15.27586546 rev/d
Perigee alt
482.0 km
Apogee alt
484.0 km
Semi-major
6,861.2 km
B*
3.7277e-4
RAAN
228.8879°
Arg perigee
270.4974°
Mean anomaly
89.5713°
Rev number
8,579

§ Raw data

STARLINK-336601 63278U 25053P   26262.25418448  .00010012  00000+0  37277-3 0  99972 63278  42.9987 228.8879 0001435 270.4974  89.5713 15.27586546 85798

JSON: /api/v1/satellites/63278 · /tle

For live sub-satellite position, see the globe view (requires WebGL).

§ Visibility from observer

Set your observer location to see the next 7 days of passes ≥ 10°. The values pass through the URL so the page stays shareable.

No JS? Fill the form by hand. The geolocation button needs JavaScript.